Location: Aalen
(48.8330°N, 10.1000°E)
Time: 06:40:46
(UTC+02:00)

UWE-3 - Pass Details

Date: 01 April 2023
Orbit: 576 x 670 km, 97.7° (Epoch: 29 May)

Event Time Altitude Azimuth Distance (km) Brightness Sun altitude
Rises 03:34:38 0° 22° (NNE) 2,984 ? -29.6°
Reaches altitude 10° 03:37:09 10° 34° (NNE) 2,052 ? -29.4°
Maximum altitude 03:41:02 29° 94° (E) 1,179 ? -29.0°
Enters shadow 03:41:14 28° 99° (E) 1,181 ? -28.9°
